OSLO / FORNEBU current weather conditions

sailwx.info

Wind from 220 at 33 knots gusting 43

Air temperature 8.0° C
Visibility: greater than 5.4 NM
Dewpoint 6.0° C

Last reported at 2015-Jan-27 23:20 UTC.
Time now 2015-Jan-28 01:26 UTC

Location: N 59°54' E 010°38'.
View on Google Maps.

See reports from other nearby stations

  
Tides and Currents Weather Stations Pressure Air Temp Water Temp Dewpoint Dewpoint Depression Visibility Wind Speed Wind Dir Waves Ship Positions
date/time (UTC)wind fromknots sea level pressurealtimeterstation pressurevisibilityair tempwater tempwave heightnotes
2015-Jan-28 00:20 220 35 4.3 7.0 Light rain showers.
2015-Jan-27 23:50 220 35 4.9 7.0 Light rain showers.
2015-Jan-27 23:20 220 33 gusting 43 5.4 8.0
2015-Jan-27 22:50 220 31 5.4 8.0 Light rain showers.
2015-Jan-27 22:20 230 35 5.4 8.0 Light rain.
2015-Jan-27 21:50 220 33 5.4 8.0 Light rain.
2015-Jan-27 21:20 230 31 4.3 8.0 Light rain.
2015-Jan-27 20:50 230 34 4.3 8.0 Light rain.
2015-Jan-27 20:20 230 35 3.8 8.0 Light rain.
2015-Jan-27 19:50 230 34 3.2 8.0 Light rain.
2015-Jan-27 19:20 230 38 2.1 8.0 Light rain. Mist.
2015-Jan-27 18:50 240 36 2.3 8.0 Light rain. Mist.
2015-Jan-27 18:20 230 33 1.9 8.0 Light rain. Mist.
2015-Jan-27 17:50 230 33 1.2 8.0 Light rain. Mist.
2015-Jan-27 17:20 230 30 2.3 8.0 Light rain. Mist.
2015-Jan-27 16:50 230 30 3.2 8.0 Light rain showers.
2015-Jan-27 16:20 230 31 3.2 8.0 Light rain showers.
2015-Jan-27 15:50 240 27 5.4 8.0 Light rain showers.
2015-Jan-27 15:20 250 31 5.4 8.0
2015-Jan-27 14:50 240 32 5.4 8.0
2015-Jan-27 14:20 250 33 5.4 8.0
2015-Jan-27 13:50 250 31 5.4 8.0
2015-Jan-27 13:20 250 29 5.4 8.0
2015-Jan-27 12:50 250 25 5.4 8.0 Light rain showers.
2015-Jan-27 12:20 260 32 5.4 8.0 Light rain showers.
2015-Jan-27 11:50 250 27 gusting 38 3.2 8.0 Light rain showers.
2015-Jan-27 11:20 250 26 4.9 8.0 Light rain showers.
2015-Jan-27 10:50 250 27 5.4 8.0
2015-Jan-27 10:20 240 30 5.4 8.0 Light rain.
2015-Jan-27 09:50 230 34 5.4 7.0 Light rain.
2015-Jan-27 09:20 220 31 5.4 7.0 Light rain showers.
2015-Jan-27 08:50 220 32 5.4 7.0 Light rain.
2015-Jan-27 08:20 230 29 5.4 7.0
2015-Jan-27 07:50 230 27 5.4 7.0
2015-Jan-27 07:20 240 27 5.4 6.0
2015-Jan-27 06:50 240 25 5.4 7.0
2015-Jan-27 06:20 240 25 5.4 6.0 Light rain.
2015-Jan-27 05:50 240 25 5.4 6.0 Light rain showers.
2015-Jan-27 05:20 250 22 5.4 6.0 Light rain showers.
2015-Jan-27 04:50 250 24 5.4 6.0 Light rain showers.
2015-Jan-27 04:20 260 25 5.4 7.0
2015-Jan-27 03:50 260 25 5.4 7.0
2015-Jan-27 03:20 270 25 5.4 7.0
2015-Jan-27 02:50 260 27 5.4 7.0
2015-Jan-27 02:20 270 23 5.4 7.0
2015-Jan-27 01:50 270 26 5.4 7.0
2015-Jan-27 01:20 270 20 5.4 7.0
2015-Jan-27 00:50 290 19 5.4 6.0
2015-Jan-27 00:20 240 24 5.4 6.0
2015-Jan-26 23:50 280 22 5.4 6.0
2015-Jan-26 23:20 260 24 5.4 6.0
2015-Jan-26 22:50 260 22 5.4 7.0
2015-Jan-26 22:20 270 22 5.4 6.0
2015-Jan-26 21:50 270 17 5.4 6.0
2015-Jan-26 21:20 290 19 5.4 6.0
2015-Jan-26 20:50 270 16 5.4 5.0
2015-Jan-26 20:20 270 14 5.4 5.0
2015-Jan-26 19:50 290 14 5.4 5.0
2015-Jan-26 19:20 280 20 5.4 5.0
2015-Jan-26 18:50 300 19 5.4 5.0
2015-Jan-26 18:20 300 24 5.4 5.0
2015-Jan-26 17:50 300 23 5.4 5.0
2015-Jan-26 17:20 300 23 5.4 5.0
2015-Jan-26 16:50 290 20 5.4 5.0
2015-Jan-26 16:20 290 18 5.4 4.0
2015-Jan-26 15:50 300 20 gusting 32 5.4 5.0
2015-Jan-26 15:20 320 20 5.4 5.0 Light rain.
2015-Jan-26 14:50 300 22 5.4 5.0
2015-Jan-26 14:20 280 25 5.4 5.0
2015-Jan-26 13:50 280 27 5.4 6.0
2015-Jan-26 13:20 280 25 5.4 6.0
2015-Jan-26 12:50 280 27 5.4 5.0
2015-Jan-26 12:20 280 23 5.4 5.0
2015-Jan-26 11:50 270 32 5.4 5.0
2015-Jan-26 11:20 260 26 5.4 5.0
2015-Jan-26 10:50 250 26 5.4 6.0
2015-Jan-26 10:20 240 18 5.4 4.0 Light rain showers.
2015-Jan-26 09:50 250 39 5.4 6.0
2015-Jan-26 09:20 240 23 5.4 6.0
2015-Jan-26 08:50 240 23 5.4 6.0
2015-Jan-26 08:20 240 27 5.4 6.0
2015-Jan-26 07:50 230 19 5.4 6.0
2015-Jan-26 07:20 230 24 5.4 6.0
2015-Jan-26 06:50 240 19 5.4 6.0
2015-Jan-26 06:20 260 15 5.4 5.0
2015-Jan-26 05:50 260 20 5.4 6.0 Rain.
2015-Jan-26 05:20 250 20 5.4 6.0
2015-Jan-26 04:50 260 22 5.4 6.0
2015-Jan-26 04:20 260 30 5.4 6.0
2015-Jan-26 03:50 270 29 5.4 7.0
2015-Jan-26 03:20 250 30 5.4 7.0
2015-Jan-26 02:50 260 31 5.4 7.0
2015-Jan-26 02:20 250 34 5.4 7.0
2015-Jan-26 01:50 250 33 5.4 7.0
2015-Jan-26 01:20 240 34 5.4 7.0